Flag for U.S.A. Weather past 2 weeks in Baltimore, Maryland, U.S.A.

Now
42 °F

Mostly cloudy.


Feels Like: 42 °F
Forecast: 37 / 51 °F
Wind: No wind

Location: Baltimore-Washington International Airport

Current Time: Dec 28, 2014 at 6:46:53 AM

Latest Report: Dec 28, 2014 at 5:54 AM


Visibility: 10 mi

Pressure: 29.93 "Hg

Humidity: 85%

Dew point: 38 °F

Location of BaltimoreLocation

Historic Weather in Baltimore — Graph

°F

Baltimore temperature yesterday

Maximum temperature yesterday: 57 °F (at 12:54 PM)
Minimum temperature yesterday: 28 °F (at 12:54 AM)
Average temperature yesterday: 42 °F

Past Weeks' High & Low Weather Summary

 TemperatureHumidityPressure
High61 °F (Dec 24, 11:54 PM)100% (Dec 16, 6:54 AM)30.37 "Hg (Dec 16, 6:54 AM)
Low25 °F (Dec 20, 5:54 AM)36% (Dec 27, 1:54 PM)29.53 "Hg (Dec 24, 11:54 PM)
Average40 °F74%30.08 "Hg
* Reported Dec 13 4:54 AM — Dec 28 4:54 AM, Baltimore, Weather by CustomWeather, © 2014

Note: Actual official high and low records may vary slightly from our data, if they occured in-between our weather recording intervals... More about our weather records

Advertising

Baltimore weather history for previous 24 hours

 ConditionsComfort  
Time TempWeatherWind HumidityBarometerVisibility
4:54 AM
Dec 28
41 °FMostly cloudy.No wind82%29.93 "Hg10 mi
3:54 AM40 °FPassing clouds.No wind83%29.93 "Hg10 mi
2:54 AM39 °FPartly cloudy.No wind86%29.98 "Hg10 mi
1:54 AM37 °FPartly cloudy.No wind82%29.99 "Hg10 mi
12:54 AM35 °FPartly cloudy.No wind88%30.01 "Hg10 mi
11:54 PM
Dec 27
38 °FPartly cloudy.No wind83%30.06 "Hg10 mi
10:54 PM37 °FPartly cloudy.No wind82%30.11 "Hg10 mi
9:54 PM39 °FPassing clouds.No wind79%30.12 "Hg10 mi
8:54 PM41 °FPassing clouds.No wind74%30.15 "Hg10 mi
7:54 PM45 °FPassing clouds.No wind60%30.15 "Hg10 mi
6:54 PM48 °FPassing clouds.3 mph56%30.17 "Hg10 mi
5:54 PM48 °FPassing clouds.No wind56%30.19 "Hg10 mi
4:54 PM52 °FPassing clouds.3 mph41%30.17 "Hg10 mi
3:54 PM56 °FPartly sunny.6 mph39%30.16 "Hg10 mi
2:54 PM57 °FPartly sunny.5 mph36%30.19 "Hg10 mi
1:54 PM57 °FPartly sunny.3 mph36%30.19 "Hg10 mi
12:54 PM57 °FPartly sunny.3 mph37%30.20 "Hg10 mi
11:54 AM55 °FScattered clouds.No wind44%30.25 "Hg10 mi
10:54 AM51 °FScattered clouds.No wind52%30.28 "Hg10 mi
9:54 AM45 °FScattered clouds.No wind65%30.29 "Hg10 mi
8:54 AM36 °FScattered clouds.No wind85%30.28 "Hg10 mi
7:54 AM34 °FScattered clouds.No wind88%30.27 "Hg10 mi
6:54 AM32 °FPartly cloudy.No wind88%30.26 "Hg10 mi
Weather by CustomWeather, © 2014

See weather overviewHow to use our weather pages